Stündliche Wetter Abapo

Heute, 28 Februar, Sonntag

Zeit Temperatur Niederschläge Wind Luftdruck Luftfeuchtigkeit
00:00 +23°C° 0.1 mm 2 m/S 711 mmHg 91%
01:00 +24°C° 0.1 mm 2 m/S 711 mmHg 89%
02:00 +24°C° 0.1 mm 2 m/S 710 mmHg 88%
03:00 +23°C° 0 mm 2 m/S 710 mmHg 88%
04:00 +23°C° 0 mm 2 m/S 710 mmHg 87%
05:00 +23°C° 0 mm 1 m/S 710 mmHg 87%
06:00 +24°C° 0 mm 1 m/S 711 mmHg 82%
07:00 +25°C° 0 mm 1 m/S 711 mmHg 77%
08:00 +26°C° 0 mm 1 m/S 712 mmHg 71%
09:00 +30°C° 0 mm 1 m/S 712 mmHg 58%
10:00 +33°C° 0 mm 1 m/S 712 mmHg 44%
11:00 +36°C° 0 mm 1 m/S 712 mmHg 31%
12:00 +37°C° 0 mm 2 m/S 711 mmHg 30%
13:00 +37°C° 0 mm 2 m/S 710 mmHg 29%
14:00 +38°C° 0 mm 2 m/S 709 mmHg 28%
15:00 +37°C° 0 mm 2 m/S 708 mmHg 28%
16:00 +37°C° 0 mm 2 m/S 708 mmHg 27%
17:00 +37°C° 0 mm 2 m/S 707 mmHg 27%
18:00 +34°C° 0 mm 2 m/S 707 mmHg 33%
19:00 +30°C° 0 mm 2 m/S 707 mmHg 39%
20:00 +27°C° 0 mm 1 m/S 708 mmHg 45%
21:00 +27°C° 0 mm 1 m/S 708 mmHg 47%
22:00 +26°C° 0 mm 1 m/S 709 mmHg 49%
23:00 +26°C° 0 mm 1 m/S 709 mmHg 51%

Morgen, 1 März, Montag

Zeit Temperatur Niederschläge Wind Luftdruck Luftfeuchtigkeit
00:00 +26°C° 0 mm 1 m/S 709 mmHg 51%
01:00 +26°C° 0 mm 1 m/S 709 mmHg 51%
02:00 +26°C° 0 mm 1 m/S 709 mmHg 51%
03:00 +26°C° 0 mm 1 m/S 709 mmHg 52%
04:00 +25°C° 0 mm 1 m/S 709 mmHg 53%
05:00 +25°C° 0 mm 1 m/S 708 mmHg 54%
06:00 +26°C° 0 mm 1 m/S 709 mmHg 53%
07:00 +27°C° 0 mm 1 m/S 709 mmHg 52%
08:00 +28°C° 0 mm 1 m/S 710 mmHg 51%
09:00 +31°C° 0 mm 1 m/S 710 mmHg 43%
10:00 +35°C° 0 mm 1 m/S 710 mmHg 35%
11:00 +40°C° 0 mm 1 m/S 710 mmHg 26%
12:00 +40°C° 0 mm 1 m/S 710 mmHg 25%
13:00 +41°C° 0 mm 1 m/S 709 mmHg 23%
14:00 +41°C° 0 mm 1 m/S 708 mmHg 21%
15:00 +40°C° 0 mm 2 m/S 707 mmHg 24%
16:00 +39°C° 0 mm 2 m/S 707 mmHg 26%
17:00 +37°C° 0 mm 2 m/S 706 mmHg 28%
18:00 +35°C° 0 mm 2 m/S 706 mmHg 33%
19:00 +31°C° 0 mm 1 m/S 707 mmHg 39%
20:00 +28°C° 0 mm 1 m/S 707 mmHg 44%
21:00 +28°C° 0 mm 1 m/S 708 mmHg 44%
22:00 +28°C° 0 mm 1 m/S 708 mmHg 45%
23:00 +28°C° 0 mm 1 m/S 709 mmHg 45%

übermorgen, 2 März, Dienstag

Zeit Temperatur Niederschläge Wind Luftdruck Luftfeuchtigkeit
00:00 +27°C° 0 mm 1 m/S 709 mmHg 46%
01:00 +27°C° 0 mm 1 m/S 709 mmHg 47%
02:00 +27°C° 0 mm 1 m/S 708 mmHg 48%
03:00 +27°C° 0 mm 1 m/S 708 mmHg 49%
04:00 +27°C° 0 mm 1 m/S 709 mmHg 50%
05:00 +26°C° 0 mm 1 m/S 709 mmHg 50%
06:00 +27°C° 0 mm 1 m/S 709 mmHg 49%
07:00 +28°C° 0 mm 1 m/S 710 mmHg 48%
08:00 +30°C° 0 mm 1 m/S 710 mmHg 47%
09:00 +33°C° 0 mm 1 m/S 710 mmHg 40%
10:00 +37°C° 0 mm 1 m/S 711 mmHg 32%
11:00 +42°C° 0 mm 1 m/S 711 mmHg 25%
12:00 +41°C° 0 mm 1 m/S 710 mmHg 25%
13:00 +40°C° 0 mm 2 m/S 709 mmHg 25%
14:00 +39°C° 0 mm 2 m/S 708 mmHg 25%
15:00 +38°C° 0 mm 2 m/S 708 mmHg 26%
16:00 +38°C° 0 mm 2 m/S 708 mmHg 27%
17:00 +38°C° 0 mm 2 m/S 707 mmHg 28%
18:00 +35°C° 0 mm 2 m/S 708 mmHg 34%
19:00 +32°C° 0 mm 1 m/S 708 mmHg 41%
20:00 +29°C° 0 mm 1 m/S 708 mmHg 47%
21:00 +29°C° 0 mm 1 m/S 709 mmHg 47%
22:00 +29°C° 0 mm 1 m/S 709 mmHg 48%
23:00 +29°C° 0 mm 1 m/S 710 mmHg 48%

3 März, Mittwoch

Zeit Temperatur Niederschläge Wind Luftdruck Luftfeuchtigkeit
00:00 +28°C° 0 mm 1 m/S 710 mmHg 49%
01:00 +28°C° 0 mm 1 m/S 710 mmHg 51%
02:00 +27°C° 0 mm 1 m/S 709 mmHg 52%
03:00 +25°C° 0 mm 0 m/S 709 mmHg 54%
04:00 +24°C° 0 mm 0 m/S 709 mmHg 57%
05:00 +23°C° 0 mm 0 m/S 709 mmHg 60%
06:00 +25°C° 0 mm 0 m/S 710 mmHg 57%
07:00 +26°C° 0 mm 0 m/S 710 mmHg 53%
08:00 +28°C° 0 mm 0 m/S 711 mmHg 50%
09:00 +33°C° 0 mm 1 m/S 711 mmHg 43%
10:00 +36°C° 0 mm 1 m/S 711 mmHg 35%
11:00 +41°C° 0 mm 1 m/S 711 mmHg 28%
12:00 +41°C° 0 mm 1 m/S 711 mmHg 27%
13:00 +40°C° 0 mm 2 m/S 710 mmHg 26%
14:00 +40°C° 0 mm 3 m/S 709 mmHg 25%
15:00 +39°C° 0 mm 3 m/S 708 mmHg 29%
16:00 +37°C° 0 mm 3 m/S 708 mmHg 33%
17:00 +36°C° 0 mm 3 m/S 707 mmHg 37%
18:00 +34°C° 0 mm 2 m/S 707 mmHg 43%
19:00 +31°C° 0 mm 2 m/S 708 mmHg 50%
20:00 +29°C° 0 mm 1 m/S 708 mmHg 57%
21:00 +28°C° 0 mm 1 m/S 709 mmHg 61%
22:00 +27°C° 0 mm 1 m/S 709 mmHg 65%
23:00 +24°C° 0 mm 0 m/S 710 mmHg 70%

4 März, Donnerstag

Zeit Temperatur Niederschläge Wind Luftdruck Luftfeuchtigkeit
00:00 +23°C° 0 mm 0 m/S 709 mmHg 72%
01:00 +23°C° 0 mm 0 m/S 709 mmHg 74%
02:00 +22°C° 0 mm 0 m/S 709 mmHg 76%
03:00 +22°C° 0 mm 0 m/S 709 mmHg 78%
04:00 +21°C° 0 mm 0 m/S 709 mmHg 80%
05:00 +21°C° 0 mm 0 m/S 709 mmHg 81%
06:00 +23°C° 0 mm 0 m/S 709 mmHg 75%
07:00 +24°C° 0 mm 0 m/S 710 mmHg 69%
08:00 +26°C° 0 mm 0 m/S 710 mmHg 63%
09:00 +31°C° 0 mm 1 m/S 710 mmHg 54%
10:00 +34°C° 0 mm 1 m/S 710 mmHg 44%
11:00 +37°C° 0 mm 1 m/S 710 mmHg 35%
12:00 +39°C° 0 mm 2 m/S 710 mmHg 34%
13:00 +39°C° 0 mm 3 m/S 709 mmHg 33%
14:00 +40°C° 0 mm 4 m/S 708 mmHg 31%
15:00 +38°C° 0 mm 4 m/S 708 mmHg 37%
16:00 +37°C° 0 mm 4 m/S 707 mmHg 43%
17:00 +35°C° 0 mm 5 m/S 707 mmHg 49%
18:00 +32°C° 1 mm 4 m/S 707 mmHg 60%
19:00 +29°C° 1 mm 3 m/S 707 mmHg 71%
20:00 +26°C° 1 mm 2 m/S 707 mmHg 83%
21:00 +26°C° 1.3 mm 2 m/S 708 mmHg 86%
22:00 +25°C° 1.3 mm 2 m/S 708 mmHg 90%
23:00 +25°C° 1.3 mm 2 m/S 709 mmHg 93%

5 März, Freitag

Zeit Temperatur Niederschläge Wind Luftdruck Luftfeuchtigkeit
00:00 +24°C° 1.2 mm 2 m/S 709 mmHg 95%
01:00 +24°C° 1.2 mm 1 m/S 709 mmHg 96%
02:00 +24°C° 1.2 mm 1 m/S 708 mmHg 98%
03:00 +24°C° 1.5 mm 2 m/S 708 mmHg 97%
04:00 +24°C° 1.5 mm 2 m/S 709 mmHg 97%
05:00 +23°C° 1.5 mm 2 m/S 709 mmHg 97%
06:00 +23°C° 2.2 mm 2 m/S 709 mmHg 97%
07:00 +23°C° 2.2 mm 2 m/S 710 mmHg 97%
08:00 +23°C° 2.2 mm 2 m/S 711 mmHg 97%
09:00 +25°C° 0.1 mm 1 m/S 711 mmHg 84%
10:00 +27°C° 0.1 mm 1 m/S 711 mmHg 72%
11:00 +29°C° 0.1 mm 1 m/S 712 mmHg 60%
12:00 +30°C° 0.3 mm 1 m/S 711 mmHg 57%
13:00 +31°C° 0.3 mm 1 m/S 711 mmHg 54%
14:00 +32°C° 0.3 mm 1 m/S 710 mmHg 51%
15:00 +32°C° 0.1 mm 1 m/S 710 mmHg 49%
16:00 +32°C° 0.1 mm 1 m/S 709 mmHg 47%
17:00 +33°C° 0.1 mm 1 m/S 709 mmHg 44%
18:00 +30°C° 0 mm 1 m/S 709 mmHg 54%
19:00 +28°C° 0 mm 1 m/S 708 mmHg 63%
20:00 +25°C° 0 mm 1 m/S 708 mmHg 73%
21:00 +25°C° 0 mm 1 m/S 709 mmHg 74%
22:00 +24°C° 0 mm 1 m/S 709 mmHg 76%
23:00 +24°C° 0 mm 1 m/S 709 mmHg 77%
Mehr zeigen

Wir brauchen deine Erlaubnis

Meteoprog und unser Service Anbieter werden persönliche Daten aufbewahren, so wie Cookies, Geräte Bezeichnung oder ähnliche Technologien von deinem Gerät und Prozess, so wie Persönliche Daten Inhalte und Werbungen, genauso wie social Media und den Verkehr zu analysieren.

  • Aufbewahrung und/oder Zugang zu deiner Geräte Informationen.

    Cookies, Geräte Bezeichnung oder andere Informationen, können aufbewahrt oder Zugang zu deinem Gerät erhalten, für den Grund, der oben angegeben wird.

  • Personalisierte Werbung und Inhalte, Messungen, Einblick in das Publikum und Produkt Entwicklung.

    Werbungen und Inhalte können personalisiert werden, basierend auf ein Profil. Mehr Daten können besser personalisierte Werbungen und Inhalte hinzufügen. Werbung und Inhalte können gezeigt und gemessen werden. Einblicke über das Publikum, welche die Werbung gesehen haben und den Inhalt, können abgeleitet werden. So wie Daten können genutzt werden, um es zu verbessern oder die Benutzer Erfahrung zu verbessern das System und die Software.

Wenn du “Ich stimme zu” klickst, erlaubst du uns, die Cookies zu benutzen die Geräte Bezeichnung, den Web oder ähnliche Technologien zu benutzen. Deine Settings, können in deinem Gerät bei deinem Browser geändert werden.

Für den bestimmten Zweck, berechtigten Interessen beruhen darauf, mehr als auf den Inhalt. Du kannst mehr darüber in unseren Privaten und Cookie Politik lesen.